Other Public Products
Issued by NWS Charleston, SC

Current Version | Previous Version | Graphics & Text | Print | Product List | Glossary On
Versions: 1 2 3 4 5 6 7 8 9 10 11 12 13 14 15 16 17 18 19 20 21 22 23 24 25 26 27 28 29 30 31 32 33 34 35 36 37 38 39 40 41 42 43 44 45 46 47 48 49 50
000
FPUS82 KCHS 210442
OPUCHS

TEST...KCHS/KSAV Gateway Observations...TEST
National Weather Service Charleston SC
1200 AM EDT THU SEP 21 2017

NOTE: "fair" indicates few or no clouds below 12,000 feet with no
significant weather and/or obstructions to visibility.

SCZ050-WAZ558-NCZ071-TXZ119-213-PAZ071-DCZ001-FLZ074-172-MI076-
NYZ176-178-MAZ016-IL014-TNZ027-NJZ106-GAZ044-MD014-210500-

...Gateway Observations for Charleston International...

CITY           SKY/WX    TMP DP  RH WIND       PRES   REMARKS
Chas Airport   CLEAR     75  73  93 S3        30.02S
Seattle        MOCLDY    54  48  80 SE8       29.82R
Charlotte      MOCLDY    74  71  91 W3        30.04R
Dallas DFW     MOCLDY    88  70  55 S16       29.87R HX  93
Dallas Love    PTCLDY    87  69  54 S15       29.89R HX  91
Philladelphia  PTCLDY    75  64  68 N6        29.96R
Wash National  CLEAR     74  69  85 E3        29.99S
Baltimore      CLEAR     64  64 100 W5        29.98R
Miami          CLOUDY    84  76  76 E9        29.97S HX  93
Detroit        CLEAR     69  67  93 S5        30.02R
Newark         MOCLDY    75  62  64 NW10      29.94S
Laguardia      MOCLDY    75  65  70 N13       29.92S
J F K          CLOUDY    75  64  68 N12       29.94R
Boston Logan   CLOUDY    71  66  84 N20G29    29.87F
Ft. Lauderdale LGT RAIN  81  77  88 E8        29.96S
Chicago O`Hare CLOUDY    81  66  60 SW9       29.93R
Chicago Midway CLOUDY    82  67  60 SW8       29.93R
Houston Bush   PTCLDY    81  76  84 S7        29.95R
Houston Hobby  PTCLDY    82  76  81 SE5       29.95R
Nashville      CLEAR     75  69  81 SE5       30.04R
Atlanta        PTCLDY    75  67  76 NW3       30.06R

$$

GAZ044-118-TXZ119-213-NCZ071-DCZ001-MDZ014-506-PAZ021-071-NJZ106-
NYZ176-178-MAZ106-OHZ011-021-055-MIZ076-KYZ091-ILZ014-INZ047-
MNZ060-ONZ431-210500-

...Gateway Observations for Savannah International...

CITY           SKY/WX    TMP DP  RH WIND       PRES   REMARKS
Savannah Arpt  PTCLDY    73  70  90 SW5       30.02S
Atlanta        PTCLDY    75  67  76 NW3       30.06R
Charlotte      MOCLDY    74  71  91 W3        30.04R
Dallas DFW     MOCLDY    88  70  55 S16       29.87R HX  93
Houston Bush   PTCLDY    81  76  84 S7        29.95R
Wash National  CLEAR     74  69  85 E3        29.99S
Wash Dulles    CLEAR     64  62  93 CALM      30.00S
Baltimore      CLEAR     64  64 100 W5        29.98R
Philadelphia   PTCLDY    75  64  68 N6        29.96R
Newark         MOCLDY    75  62  64 NW10      29.94S
Laguardia      MOCLDY    75  65  70 N13       29.92S
J F K          CLOUDY    75  64  68 N12       29.94R
Boston         CLOUDY    71  66  84 N20G29    29.87F
Pittsburg      PTCLDY    67  64  90 CALM      30.05S
Akron          CLEAR     72  64  76 SE3       30.05S
Cleveland      CLEAR     72  62  71 CALM      30.04S
Cincinnati     CLEAR     72  69  90 S5        30.03S
Columbus       CLEAR     66  66 100 CALM      30.03S
Detroit        CLEAR     69  67  93 S5        30.02R
Chicago O`Hare CLOUDY    81  66  60 SW9       29.93R
Minneapolis    CLEAR     61  52  72 CALM      29.94R
Indianapolis   CLEAR     76  70  82 S9        30.00R
Toronto Canada CLEAR     70  59  68 E3        30.04S

$$




USA.gov is the U.S. government's official web portal to all federal, state and local government web resources and services.